Year,Month,Day,Hour,Minute,Value (Times are PST for temperature in C)
2017,05,24,00,00,8.10
2017,05,24,00,01,8.10
2017,05,24,00,02,8.10
2017,05,24,00,03,8.10
2017,05,24,00,04,8.10
2017,05,24,00,05,8.10
2017,05,24,00,06,8.10
2017,05,24,00,07,8.10
2017,05,24,00,08,8.10
2017,05,24,00,09,8.10
2017,05,24,00,10,8.10
2017,05,24,00,11,8.10
2017,05,24,00,12,8.10
2017,05,24,00,13,8.10
2017,05,24,00,14,8.10
2017,05,24,00,15,8.10
2017,05,24,00,16,8.10
2017,05,24,00,17,8.20
2017,05,24,00,18,8.20
2017,05,24,00,19,8.20
2017,05,24,00,20,8.20
2017,05,24,00,21,8.20
2017,05,24,00,22,8.20
2017,05,24,00,23,8.20
2017,05,24,00,24,8.20
2017,05,24,00,25,8.10
2017,05,24,00,26,8.10
2017,05,24,00,27,8.10
2017,05,24,00,28,8.10
2017,05,24,00,29,8.10
2017,05,24,00,30,8.00
2017,05,24,00,31,8.00
2017,05,24,00,32,8.00
2017,05,24,00,33,8.00
2017,05,24,00,34,8.00
2017,05,24,00,35,8.00
2017,05,24,00,36,8.00
2017,05,24,00,37,8.00
2017,05,24,00,38,8.00
2017,05,24,00,39,8.00
2017,05,24,00,40,8.00
2017,05,24,00,41,8.00
2017,05,24,00,42,8.00
2017,05,24,00,43,8.00
2017,05,24,00,44,8.00
2017,05,24,00,45,8.00
2017,05,24,00,46,8.00
2017,05,24,00,47,8.00
2017,05,24,00,48,8.00
2017,05,24,00,49,8.00
2017,05,24,00,50,8.00
2017,05,24,00,51,8.00
2017,05,24,00,52,8.00
2017,05,24,00,53,8.00
2017,05,24,00,54,7.90
2017,05,24,00,55,7.90
2017,05,24,00,56,7.90
2017,05,24,00,57,7.90
2017,05,24,00,58,7.90
2017,05,24,00,59,7.90
2017,05,24,01,00,7.90
2017,05,24,01,01,7.90
2017,05,24,01,02,7.90
2017,05,24,01,03,7.80
2017,05,24,01,04,7.80
2017,05,24,01,05,7.80
2017,05,24,01,06,7.80
2017,05,24,01,07,7.80
2017,05,24,01,08,7.80
2017,05,24,01,09,7.70
2017,05,24,01,10,7.70
2017,05,24,01,11,7.70
2017,05,24,01,12,7.70
2017,05,24,01,13,7.70
2017,05,24,01,14,7.70
2017,05,24,01,15,7.70
2017,05,24,01,16,7.60
2017,05,24,01,17,7.60
2017,05,24,01,18,7.60
2017,05,24,01,19,7.60
2017,05,24,01,20,7.60
2017,05,24,01,21,7.60
2017,05,24,01,22,7.60
2017,05,24,01,23,7.60
2017,05,24,01,24,7.60
2017,05,24,01,25,7.50
2017,05,24,01,26,7.60
2017,05,24,01,27,7.60
2017,05,24,01,28,7.60
2017,05,24,01,29,7.60
2017,05,24,01,30,7.60
2017,05,24,01,31,7.60
2017,05,24,01,32,7.60
2017,05,24,01,33,7.60
2017,05,24,01,34,7.60
2017,05,24,01,35,7.70
2017,05,24,01,36,7.60
2017,05,24,01,37,7.60
2017,05,24,01,38,7.60
2017,05,24,01,39,7.60
2017,05,24,01,40,7.60
2017,05,24,01,41,7.60
2017,05,24,01,42,7.60
2017,05,24,01,43,7.60
2017,05,24,01,44,7.60
2017,05,24,01,45,7.60
2017,05,24,01,46,7.60
2017,05,24,01,47,7.60
2017,05,24,01,48,7.60
2017,05,24,01,49,7.50
2017,05,24,01,50,7.50
2017,05,24,01,51,7.50
2017,05,24,01,52,7.50
2017,05,24,01,53,7.50
2017,05,24,01,54,7.50
2017,05,24,01,55,7.50
2017,05,24,01,56,7.50
2017,05,24,01,57,7.40
2017,05,24,01,58,7.40
2017,05,24,01,59,7.40
2017,05,24,02,00,7.40
2017,05,24,02,01,7.40
2017,05,24,02,02,7.40
2017,05,24,02,03,7.40
2017,05,24,02,04,7.40
2017,05,24,02,05,7.40
2017,05,24,02,06,7.40
2017,05,24,02,07,7.40
2017,05,24,02,08,7.50
2017,05,24,02,09,7.50
2017,05,24,02,10,7.50
2017,05,24,02,11,7.50
2017,05,24,02,12,7.50
2017,05,24,02,13,7.50
2017,05,24,02,14,7.50
2017,05,24,02,15,7.50
2017,05,24,02,16,7.50
2017,05,24,02,17,7.50
2017,05,24,02,18,7.50
2017,05,24,02,19,7.50
2017,05,24,02,20,7.50
2017,05,24,02,21,7.50
2017,05,24,02,22,7.40
2017,05,24,02,23,7.40
2017,05,24,02,24,7.40
2017,05,24,02,25,7.40
2017,05,24,02,26,7.30
2017,05,24,02,27,7.30
2017,05,24,02,28,7.20
2017,05,24,02,29,7.20
2017,05,24,02,30,7.10
2017,05,24,02,31,7.10
2017,05,24,02,32,7.10
2017,05,24,02,33,7.10
2017,05,24,02,34,7.00
2017,05,24,02,35,7.00
2017,05,24,02,36,6.90
2017,05,24,02,37,6.90
2017,05,24,02,38,6.90
2017,05,24,02,39,6.90
2017,05,24,02,40,6.90
2017,05,24,02,41,6.90
2017,05,24,02,42,6.90
2017,05,24,02,43,6.90
2017,05,24,02,44,6.80
2017,05,24,02,45,6.80
2017,05,24,02,46,6.90
2017,05,24,02,47,6.80
2017,05,24,02,48,6.80
2017,05,24,02,49,6.80
2017,05,24,02,50,6.80
2017,05,24,02,51,6.80
2017,05,24,02,52,6.80
2017,05,24,02,53,6.80
2017,05,24,02,54,6.80
2017,05,24,02,55,6.80
2017,05,24,02,56,6.80
2017,05,24,02,57,6.80
2017,05,24,02,58,6.80
2017,05,24,02,59,6.80
2017,05,24,03,00,6.80
2017,05,24,03,01,6.80
2017,05,24,03,02,6.80
2017,05,24,03,03,6.80
2017,05,24,03,04,6.80
2017,05,24,03,05,6.80
2017,05,24,03,06,6.80
2017,05,24,03,07,6.80
2017,05,24,03,08,6.80
2017,05,24,03,09,6.90
2017,05,24,03,10,6.80
2017,05,24,03,11,6.90
2017,05,24,03,12,6.90
2017,05,24,03,13,6.90
2017,05,24,03,14,6.90
2017,05,24,03,15,6.90
2017,05,24,03,16,6.90
2017,05,24,03,17,7.00
2017,05,24,03,18,7.00
2017,05,24,03,19,7.00
2017,05,24,03,20,7.00
2017,05,24,03,21,7.10
2017,05,24,03,22,7.10
2017,05,24,03,23,7.10
2017,05,24,03,24,7.10
2017,05,24,03,25,7.10
2017,05,24,03,26,7.10
2017,05,24,03,27,7.10
2017,05,24,03,28,7.10
2017,05,24,03,29,7.10
2017,05,24,03,30,7.10
2017,05,24,03,31,7.10
2017,05,24,03,32,7.10
2017,05,24,03,33,7.10
2017,05,24,03,34,7.10
2017,05,24,03,35,7.10
2017,05,24,03,36,7.10
2017,05,24,03,37,7.10
2017,05,24,03,38,7.10
2017,05,24,03,39,7.10
2017,05,24,03,40,7.10
2017,05,24,03,41,7.10
2017,05,24,03,42,7.10
2017,05,24,03,43,7.10
2017,05,24,03,44,7.10
2017,05,24,03,45,7.10
2017,05,24,03,46,7.20
2017,05,24,03,47,7.20
2017,05,24,03,48,7.20
2017,05,24,03,49,7.20
2017,05,24,03,50,7.20
2017,05,24,03,51,7.20
2017,05,24,03,52,7.20
2017,05,24,03,53,7.20
2017,05,24,03,54,7.20
2017,05,24,03,55,7.20
2017,05,24,03,56,7.20
2017,05,24,03,57,7.20
2017,05,24,03,58,7.20
2017,05,24,03,59,7.20
2017,05,24,04,00,7.20
2017,05,24,04,01,7.20
2017,05,24,04,02,7.20
2017,05,24,04,03,7.20
2017,05,24,04,04,7.30
2017,05,24,04,05,7.30
2017,05,24,04,06,7.30
2017,05,24,04,07,7.30
2017,05,24,04,08,7.30
2017,05,24,04,09,7.40
2017,05,24,04,10,7.40
2017,05,24,04,11,7.40
2017,05,24,04,12,7.40
2017,05,24,04,13,7.50
2017,05,24,04,14,7.50
2017,05,24,04,15,7.50
2017,05,24,04,16,7.50
2017,05,24,04,17,7.60
2017,05,24,04,18,7.60
2017,05,24,04,19,7.60
2017,05,24,04,20,7.60
2017,05,24,04,21,7.60
2017,05,24,04,22,7.60
2017,05,24,04,23,7.60
2017,05,24,04,24,7.60
2017,05,24,04,25,7.60
2017,05,24,04,26,7.60
2017,05,24,04,27,7.60
2017,05,24,04,28,7.60
2017,05,24,04,29,7.50
2017,05,24,04,30,7.50
2017,05,24,04,31,7.50
2017,05,24,04,32,7.50
2017,05,24,04,33,7.50
2017,05,24,04,34,7.50
2017,05,24,04,35,7.50
2017,05,24,04,36,7.50
2017,05,24,04,37,7.50
2017,05,24,04,38,7.50
2017,05,24,04,39,7.50
2017,05,24,04,40,7.40
2017,05,24,04,41,7.40
2017,05,24,04,42,7.40
2017,05,24,04,43,7.40
2017,05,24,04,44,7.40
2017,05,24,04,45,7.40
2017,05,24,04,46,7.40
2017,05,24,04,47,7.40
2017,05,24,04,48,7.30
2017,05,24,04,49,7.30
2017,05,24,04,50,7.30
2017,05,24,04,51,7.30
2017,05,24,04,52,7.30
2017,05,24,04,53,7.30
2017,05,24,04,54,7.30
2017,05,24,04,55,7.30
2017,05,24,04,56,7.30
2017,05,24,04,57,7.30
2017,05,24,04,58,7.30
2017,05,24,04,59,7.20
2017,05,24,05,00,7.20
2017,05,24,05,01,7.20
2017,05,24,05,02,7.20
2017,05,24,05,03,7.20
2017,05,24,05,04,7.10
2017,05,24,05,05,7.10
2017,05,24,05,06,7.10
2017,05,24,05,07,7.10
2017,05,24,05,08,7.10
2017,05,24,05,09,7.10
2017,05,24,05,10,7.10
2017,05,24,05,11,7.10
2017,05,24,05,12,7.00
2017,05,24,05,13,7.00
2017,05,24,05,14,7.00
2017,05,24,05,15,7.00
2017,05,24,05,16,7.00
2017,05,24,05,17,7.00
2017,05,24,05,18,7.00
2017,05,24,05,19,7.00
2017,05,24,05,20,7.00
2017,05,24,05,21,7.00
2017,05,24,05,22,7.00
2017,05,24,05,23,7.00
2017,05,24,05,24,7.00
2017,05,24,05,25,7.00
2017,05,24,05,26,7.00
2017,05,24,05,27,7.00
2017,05,24,05,28,7.00
2017,05,24,05,29,7.00
2017,05,24,05,30,7.00
2017,05,24,05,31,7.00
2017,05,24,05,32,7.00
2017,05,24,05,33,7.00
2017,05,24,05,34,7.10
2017,05,24,05,35,7.10
2017,05,24,05,36,7.10
2017,05,24,05,37,7.10
2017,05,24,05,38,7.10
2017,05,24,05,39,7.10
2017,05,24,05,40,7.10
2017,05,24,05,41,7.10
2017,05,24,05,42,7.10
2017,05,24,05,43,7.20
2017,05,24,05,44,7.20
2017,05,24,05,45,7.20
2017,05,24,05,46,7.30
2017,05,24,05,47,7.30
2017,05,24,05,48,7.40
2017,05,24,05,49,7.40
2017,05,24,05,50,7.40
2017,05,24,05,51,7.40
2017,05,24,05,52,7.40
2017,05,24,05,53,7.50
2017,05,24,05,54,7.50
2017,05,24,05,55,7.50
2017,05,24,05,56,7.50
2017,05,24,05,57,7.50
2017,05,24,05,58,7.50
2017,05,24,05,59,7.50
2017,05,24,06,00,7.50
2017,05,24,06,01,7.50
2017,05,24,06,02,7.50
2017,05,24,06,03,7.60
2017,05,24,06,04,7.60
2017,05,24,06,05,7.60
2017,05,24,06,06,7.60
2017,05,24,06,07,7.60
2017,05,24,06,08,7.60
2017,05,24,06,09,7.60
2017,05,24,06,10,7.60
2017,05,24,06,11,7.60
2017,05,24,06,12,7.60
2017,05,24,06,13,7.60
2017,05,24,06,14,7.60
2017,05,24,06,15,7.60
2017,05,24,06,16,7.60
2017,05,24,06,17,7.60
2017,05,24,06,18,7.60
2017,05,24,06,19,7.60
2017,05,24,06,20,7.60
2017,05,24,06,21,7.60
2017,05,24,06,22,7.60
2017,05,24,06,23,7.60
2017,05,24,06,24,7.60
2017,05,24,06,25,7.60
2017,05,24,06,26,7.60
2017,05,24,06,27,7.60
2017,05,24,06,28,7.60
2017,05,24,06,29,7.70
2017,05,24,06,30,7.70
2017,05,24,06,31,7.70
2017,05,24,06,32,7.70
2017,05,24,06,33,7.70
2017,05,24,06,34,7.70
2017,05,24,06,35,7.80
2017,05,24,06,36,7.80
2017,05,24,06,37,7.80
2017,05,24,06,38,7.80
2017,05,24,06,39,7.80
2017,05,24,06,40,7.80
2017,05,24,06,41,7.80
2017,05,24,06,42,7.80
2017,05,24,06,43,7.90
2017,05,24,06,44,7.90
2017,05,24,06,45,7.90
2017,05,24,06,46,7.90
2017,05,24,06,47,8.00
2017,05,24,06,48,8.00
2017,05,24,06,49,8.10
2017,05,24,06,50,8.10
2017,05,24,06,51,8.10
2017,05,24,06,52,8.10
2017,05,24,06,53,8.10
2017,05,24,06,54,8.10
2017,05,24,06,55,8.20
2017,05,24,06,56,8.20
2017,05,24,06,57,8.20
2017,05,24,06,58,8.20
2017,05,24,06,59,8.30
2017,05,24,07,00,8.30
2017,05,24,07,01,8.30
2017,05,24,07,02,8.40
2017,05,24,07,03,8.40
2017,05,24,07,04,8.40
2017,05,24,07,05,8.50
2017,05,24,07,06,8.50
2017,05,24,07,07,8.50
2017,05,24,07,08,8.50
2017,05,24,07,09,8.50
2017,05,24,07,10,8.60
2017,05,24,07,11,8.60
2017,05,24,07,12,8.60
2017,05,24,07,13,8.60
2017,05,24,07,14,8.60
2017,05,24,07,15,8.60
2017,05,24,07,16,8.60
2017,05,24,07,17,8.70
2017,05,24,07,18,8.70
2017,05,24,07,19,8.70
2017,05,24,07,20,8.70
2017,05,24,07,21,8.70
2017,05,24,07,22,8.70
2017,05,24,07,23,8.70
2017,05,24,07,24,8.80
2017,05,24,07,25,8.80
2017,05,24,07,26,8.80
2017,05,24,07,27,8.80
2017,05,24,07,28,8.80
2017,05,24,07,29,8.90
2017,05,24,07,30,8.90
2017,05,24,07,31,8.90
2017,05,24,07,32,8.90
2017,05,24,07,33,8.90
2017,05,24,07,34,9.00
2017,05,24,07,35,9.00
2017,05,24,07,36,9.00
2017,05,24,07,37,9.00
2017,05,24,07,38,9.10
2017,05,24,07,39,9.10
2017,05,24,07,40,9.10
2017,05,24,07,41,9.10
2017,05,24,07,42,9.20
2017,05,24,07,43,9.20
2017,05,24,07,44,9.20
2017,05,24,07,45,9.20
2017,05,24,07,46,9.30
2017,05,24,07,47,9.30
2017,05,24,07,48,9.40
2017,05,24,07,49,9.40
2017,05,24,07,50,9.40
2017,05,24,07,51,9.40
2017,05,24,07,52,9.40
2017,05,24,07,53,9.50
2017,05,24,07,54,9.60
2017,05,24,07,55,9.60
2017,05,24,07,56,9.60
2017,05,24,07,57,9.60
2017,05,24,07,58,9.60
2017,05,24,07,59,9.60
2017,05,24,08,00,9.60
2017,05,24,08,01,9.70
2017,05,24,08,02,9.70
2017,05,24,08,03,9.60
2017,05,24,08,04,9.60
2017,05,24,08,05,9.60
2017,05,24,08,06,9.60
2017,05,24,08,07,9.60
2017,05,24,08,08,9.60
2017,05,24,08,09,9.70
2017,05,24,08,10,9.70
2017,05,24,08,11,9.70
2017,05,24,08,12,9.70
2017,05,24,08,13,9.70
2017,05,24,08,14,9.80
2017,05,24,08,15,9.80
2017,05,24,08,16,9.80
2017,05,24,08,17,9.90
2017,05,24,08,18,9.90
2017,05,24,08,19,10.00
2017,05,24,08,20,10.00
2017,05,24,08,21,10.10
2017,05,24,08,22,10.20
2017,05,24,08,23,10.20
2017,05,24,08,24,10.30
2017,05,24,08,25,10.40
2017,05,24,08,26,10.40
2017,05,24,08,27,10.50
2017,05,24,08,28,10.50
2017,05,24,08,29,10.40
2017,05,24,08,30,10.40
2017,05,24,08,31,10.40
2017,05,24,08,32,10.40
2017,05,24,08,33,10.40
2017,05,24,08,34,10.40
2017,05,24,08,35,10.40
2017,05,24,08,36,10.40
2017,05,24,08,37,10.50
2017,05,24,08,38,10.50
2017,05,24,08,39,10.50
2017,05,24,08,40,10.60
2017,05,24,08,41,10.60
2017,05,24,08,42,10.70
2017,05,24,08,43,10.80
2017,05,24,08,44,10.90
2017,05,24,08,45,11.00
2017,05,24,08,46,11.20
2017,05,24,08,47,11.30
2017,05,24,08,48,11.50
2017,05,24,08,49,11.70
2017,05,24,08,50,11.90
2017,05,24,08,51,12.00
2017,05,24,08,52,12.10
2017,05,24,08,53,12.20
2017,05,24,08,54,12.30
2017,05,24,08,55,12.50
2017,05,24,08,56,12.60
2017,05,24,08,57,12.70
2017,05,24,08,58,12.70
2017,05,24,08,59,12.60
2017,05,24,09,00,12.60
2017,05,24,09,01,12.60
2017,05,24,09,02,12.60
2017,05,24,09,03,12.70
2017,05,24,09,04,12.70
2017,05,24,09,05,12.70
2017,05,24,09,06,12.80
2017,05,24,09,07,12.90
2017,05,24,09,08,12.90
2017,05,24,09,09,13.00
2017,05,24,09,10,13.10
2017,05,24,09,11,13.20
2017,05,24,09,12,13.20
2017,05,24,09,13,13.20
2017,05,24,09,14,13.20
2017,05,24,09,15,13.20
2017,05,24,09,16,13.10
2017,05,24,09,17,13.10
2017,05,24,09,18,13.00
2017,05,24,09,19,12.90
2017,05,24,09,20,12.80
2017,05,24,09,21,12.80
2017,05,24,09,22,12.80
2017,05,24,09,23,12.80
2017,05,24,09,24,12.80
2017,05,24,09,25,12.80
2017,05,24,09,26,12.90
2017,05,24,09,27,12.90
2017,05,24,09,28,12.90
2017,05,24,09,29,13.00
2017,05,24,09,30,13.00
2017,05,24,09,31,13.00
2017,05,24,09,32,13.00
2017,05,24,09,33,12.90
2017,05,24,09,34,12.90
2017,05,24,09,35,12.80
2017,05,24,09,36,12.70
2017,05,24,09,37,12.70
2017,05,24,09,38,12.70
2017,05,24,09,39,12.60
2017,05,24,09,40,12.60
2017,05,24,09,41,12.60
2017,05,24,09,42,12.60
2017,05,24,09,43,12.60
2017,05,24,09,44,12.60
2017,05,24,09,45,12.60
2017,05,24,09,46,12.70
2017,05,24,09,47,12.70
2017,05,24,09,48,12.70
2017,05,24,09,49,12.70
2017,05,24,09,50,12.80
2017,05,24,09,51,12.80
2017,05,24,09,52,12.80
2017,05,24,09,53,12.90
2017,05,24,09,54,12.90
2017,05,24,09,55,13.00
2017,05,24,09,56,13.20
2017,05,24,09,57,13.20
2017,05,24,09,58,13.30
2017,05,24,09,59,13.40
2017,05,24,10,00,13.50
2017,05,24,10,01,13.50
2017,05,24,10,02,13.60
2017,05,24,10,03,13.60
2017,05,24,10,04,13.70
2017,05,24,10,05,13.70
2017,05,24,10,06,13.80
2017,05,24,10,07,13.90
2017,05,24,10,08,13.90
2017,05,24,10,09,14.00
2017,05,24,10,10,14.00
2017,05,24,10,11,14.00
2017,05,24,10,12,14.00
2017,05,24,10,13,14.10
2017,05,24,10,14,14.10
2017,05,24,10,15,14.10
2017,05,24,10,16,14.00
2017,05,24,10,17,14.00
2017,05,24,10,18,13.90
2017,05,24,10,19,13.90
2017,05,24,10,20,13.90
2017,05,24,10,21,13.90
2017,05,24,10,22,14.00
2017,05,24,10,23,14.10
2017,05,24,10,24,14.20
2017,05,24,10,25,14.30
2017,05,24,10,26,14.30
2017,05,24,10,27,14.40
2017,05,24,10,28,14.40
2017,05,24,10,29,14.50
2017,05,24,10,30,14.60
2017,05,24,10,31,14.60
2017,05,24,10,32,14.60
2017,05,24,10,33,14.60
2017,05,24,10,34,14.60
2017,05,24,10,35,14.70
2017,05,24,10,36,14.80
2017,05,24,10,37,14.90
2017,05,24,10,38,14.90
2017,05,24,10,39,14.80
2017,05,24,10,40,14.70
2017,05,24,10,41,14.70
2017,05,24,10,42,14.70
2017,05,24,10,43,14.80
2017,05,24,10,44,14.90
2017,05,24,10,45,14.90
2017,05,24,10,46,14.90
2017,05,24,10,47,14.90
2017,05,24,10,48,14.90
2017,05,24,10,49,14.90
2017,05,24,10,50,14.90
2017,05,24,10,51,14.90
2017,05,24,10,52,14.90
2017,05,24,10,53,14.90
2017,05,24,10,54,15.00
2017,05,24,10,55,15.10
2017,05,24,10,56,15.10
2017,05,24,10,57,15.10
2017,05,24,10,58,15.10
2017,05,24,10,59,15.00
2017,05,24,11,00,14.90
2017,05,24,11,01,14.90
2017,05,24,11,02,14.80
2017,05,24,11,03,14.80
2017,05,24,11,04,14.80
2017,05,24,11,05,14.80
2017,05,24,11,06,14.80
2017,05,24,11,07,14.70
2017,05,24,11,08,14.60
2017,05,24,11,09,14.60
2017,05,24,11,10,14.70
2017,05,24,11,11,14.70
2017,05,24,11,12,14.60
2017,05,24,11,13,14.60
2017,05,24,11,14,14.50
2017,05,24,11,15,14.40
2017,05,24,11,16,14.30
2017,05,24,11,17,14.30
2017,05,24,11,18,14.30
2017,05,24,11,19,14.30
2017,05,24,11,20,14.30
2017,05,24,11,21,14.40
2017,05,24,11,22,14.40
2017,05,24,11,23,14.40
2017,05,24,11,24,14.30
2017,05,24,11,25,14.20
2017,05,24,11,26,14.20
2017,05,24,11,27,14.20
2017,05,24,11,28,14.10
2017,05,24,11,29,14.20
2017,05,24,11,30,14.20
2017,05,24,11,31,14.30
2017,05,24,11,32,14.30
2017,05,24,11,33,14.20
2017,05,24,11,34,14.10
2017,05,24,11,35,14.10
2017,05,24,11,36,14.10
2017,05,24,11,37,14.20
2017,05,24,11,38,14.10
2017,05,24,11,39,14.10
2017,05,24,11,40,14.10
2017,05,24,11,41,14.10
2017,05,24,11,42,14.20
2017,05,24,11,43,14.20
2017,05,24,11,44,14.30
2017,05,24,11,45,14.30
2017,05,24,11,46,14.30
2017,05,24,11,47,14.30
2017,05,24,11,48,14.30
2017,05,24,11,49,14.30
2017,05,24,11,50,14.30
2017,05,24,11,51,14.30
2017,05,24,11,52,14.40
2017,05,24,11,53,14.30
2017,05,24,11,54,14.30
2017,05,24,11,55,14.20
2017,05,24,11,56,14.20
2017,05,24,11,57,14.20
2017,05,24,11,58,14.30
2017,05,24,11,59,14.40
2017,05,24,12,00,14.50
2017,05,24,12,01,14.50
2017,05,24,12,02,14.50
2017,05,24,12,03,14.50
2017,05,24,12,04,14.60
2017,05,24,12,05,14.70
2017,05,24,12,06,14.70
2017,05,24,12,07,14.70
2017,05,24,12,08,14.60
2017,05,24,12,09,14.50
2017,05,24,12,10,14.40
2017,05,24,12,11,14.30
2017,05,24,12,12,14.30
2017,05,24,12,13,14.30
2017,05,24,12,14,14.30
2017,05,24,12,15,14.30
2017,05,24,12,16,14.30
2017,05,24,12,17,14.30
2017,05,24,12,18,14.20
2017,05,24,12,19,14.20
2017,05,24,12,20,14.10
2017,05,24,12,21,14.10
2017,05,24,12,22,14.10
2017,05,24,12,23,14.10
2017,05,24,12,24,14.10
2017,05,24,12,25,14.10
2017,05,24,12,26,14.10
2017,05,24,12,27,14.10
2017,05,24,12,28,14.10
2017,05,24,12,29,14.10
2017,05,24,12,30,14.00
2017,05,24,12,31,14.00
2017,05,24,12,32,14.10
2017,05,24,12,33,14.10
2017,05,24,12,34,14.10
2017,05,24,12,35,14.10
2017,05,24,12,36,14.10
2017,05,24,12,37,14.00
2017,05,24,12,38,14.00
2017,05,24,12,39,13.90
2017,05,24,12,40,13.90
2017,05,24,12,41,13.90
2017,05,24,12,42,14.00
2017,05,24,12,43,14.10
2017,05,24,12,44,14.10
2017,05,24,12,45,14.10
2017,05,24,12,46,14.00
2017,05,24,12,47,14.00
2017,05,24,12,48,14.10
2017,05,24,12,49,14.20
2017,05,24,12,50,14.20
2017,05,24,12,51,14.20
2017,05,24,12,52,14.10
2017,05,24,12,53,14.20
2017,05,24,12,54,14.20
2017,05,24,12,55,14.20
2017,05,24,12,56,14.20
2017,05,24,12,57,14.10
2017,05,24,12,58,14.20
2017,05,24,12,59,14.20
2017,05,24,13,00,14.30
2017,05,24,13,01,14.40
2017,05,24,13,02,14.40
2017,05,24,13,03,14.30
2017,05,24,13,04,14.30
2017,05,24,13,05,14.20
2017,05,24,13,06,14.30
2017,05,24,13,07,14.30
2017,05,24,13,08,14.30
2017,05,24,13,09,14.30
2017,05,24,13,10,14.30
2017,05,24,13,11,14.30
2017,05,24,13,12,14.40
2017,05,24,13,13,14.40
2017,05,24,13,14,14.40
2017,05,24,13,15,14.40
2017,05,24,13,16,14.40
2017,05,24,13,17,14.50
2017,05,24,13,18,14.60
2017,05,24,13,19,14.70
2017,05,24,13,20,14.80
2017,05,24,13,21,14.80
2017,05,24,13,22,14.80
2017,05,24,13,23,14.80
2017,05,24,13,24,14.80
2017,05,24,13,25,14.90
2017,05,24,13,26,15.00
2017,05,24,13,27,15.10
2017,05,24,13,28,15.20
2017,05,24,13,29,15.20
2017,05,24,13,30,15.10
2017,05,24,13,31,15.00
2017,05,24,13,32,14.90
2017,05,24,13,33,14.90
2017,05,24,13,34,14.80
2017,05,24,13,35,14.70
2017,05,24,13,36,14.70
2017,05,24,13,37,14.60
2017,05,24,13,38,14.60
2017,05,24,13,39,14.60
2017,05,24,13,40,14.60
2017,05,24,13,41,14.60
2017,05,24,13,42,14.60
2017,05,24,13,43,14.60
2017,05,24,13,44,14.60
2017,05,24,13,45,14.60
2017,05,24,13,46,14.50
2017,05,24,13,47,14.40
2017,05,24,13,48,14.30
2017,05,24,13,49,14.40
2017,05,24,13,50,14.40
2017,05,24,13,51,14.40
2017,05,24,13,52,14.40
2017,05,24,13,53,14.40
2017,05,24,13,54,14.40
2017,05,24,13,55,14.40
2017,05,24,13,56,14.30
2017,05,24,13,57,14.30
2017,05,24,13,58,14.20
2017,05,24,13,59,14.20
2017,05,24,14,00,14.20
2017,05,24,14,01,14.30
2017,05,24,14,02,14.30
2017,05,24,14,03,14.40
2017,05,24,14,04,14.40
2017,05,24,14,05,14.40
2017,05,24,14,06,14.40
2017,05,24,14,07,14.30
2017,05,24,14,08,14.20
2017,05,24,14,09,14.20
2017,05,24,14,10,14.20
2017,05,24,14,11,14.30
2017,05,24,14,12,14.30
2017,05,24,14,13,14.30
2017,05,24,14,14,14.30
2017,05,24,14,15,14.30
2017,05,24,14,16,14.30
2017,05,24,14,17,14.30
2017,05,24,14,18,14.40
2017,05,24,14,19,14.50
2017,05,24,14,20,14.60
2017,05,24,14,21,14.70
2017,05,24,14,22,14.80
2017,05,24,14,23,14.90
2017,05,24,14,24,14.90
2017,05,24,14,25,14.90
2017,05,24,14,26,14.90
2017,05,24,14,27,15.00
2017,05,24,14,28,14.90
2017,05,24,14,29,14.90
2017,05,24,14,30,14.90
2017,05,24,14,31,14.90
2017,05,24,14,32,14.80
2017,05,24,14,33,14.80
2017,05,24,14,34,14.80
2017,05,24,14,35,14.80
2017,05,24,14,36,14.80
2017,05,24,14,37,14.70
2017,05,24,14,38,14.60
2017,05,24,14,39,14.60
2017,05,24,14,40,14.60
2017,05,24,14,41,14.60
2017,05,24,14,42,14.60
2017,05,24,14,43,14.60
2017,05,24,14,44,14.60
2017,05,24,14,45,14.60
2017,05,24,14,46,14.60
2017,05,24,14,47,14.60
2017,05,24,14,48,14.70
2017,05,24,14,49,14.70
2017,05,24,14,50,14.70
2017,05,24,14,51,14.80
2017,05,24,14,52,14.70
2017,05,24,14,53,14.70
2017,05,24,14,54,14.80
2017,05,24,14,55,14.90
2017,05,24,14,56,15.00
2017,05,24,14,57,15.00
2017,05,24,14,58,15.10
2017,05,24,14,59,15.00
2017,05,24,15,00,15.00
2017,05,24,15,01,15.10
2017,05,24,15,02,15.10
2017,05,24,15,03,15.10
2017,05,24,15,04,15.20
2017,05,24,15,05,15.20
2017,05,24,15,06,15.10
2017,05,24,15,07,15.10
2017,05,24,15,08,15.10
2017,05,24,15,09,15.10
2017,05,24,15,10,15.10
2017,05,24,15,11,15.10
2017,05,24,15,12,15.10
2017,05,24,15,13,15.20
2017,05,24,15,14,15.20
2017,05,24,15,15,15.20
2017,05,24,15,16,15.20
2017,05,24,15,17,15.20
2017,05,24,15,18,15.30
2017,05,24,15,19,15.30
2017,05,24,15,20,15.40
2017,05,24,15,21,15.50
2017,05,24,15,22,15.50
2017,05,24,15,23,15.50
2017,05,24,15,24,15.40
2017,05,24,15,25,15.40
2017,05,24,15,26,15.40
2017,05,24,15,27,15.40
2017,05,24,15,28,15.40
2017,05,24,15,29,15.30
2017,05,24,15,30,15.30
2017,05,24,15,31,15.30
2017,05,24,15,32,15.30
2017,05,24,15,33,15.30
2017,05,24,15,34,15.30
2017,05,24,15,35,15.50
2017,05,24,15,36,15.60
2017,05,24,15,37,15.70
2017,05,24,15,38,15.70
2017,05,24,15,39,15.60
2017,05,24,15,40,15.50
2017,05,24,15,41,15.40
2017,05,24,15,42,15.30
2017,05,24,15,43,15.30
2017,05,24,15,44,15.20
2017,05,24,15,45,15.30
2017,05,24,15,46,15.50
2017,05,24,15,47,15.70
2017,05,24,15,48,15.80
2017,05,24,15,49,15.90
2017,05,24,15,50,15.90
2017,05,24,15,51,15.90
2017,05,24,15,52,15.80
2017,05,24,15,53,15.70
2017,05,24,15,54,15.70
2017,05,24,15,55,15.70
2017,05,24,15,56,15.70
2017,05,24,15,57,15.70
2017,05,24,15,58,15.70
2017,05,24,15,59,15.80
2017,05,24,16,00,15.90
2017,05,24,16,01,15.90
2017,05,24,16,02,16.00
2017,05,24,16,03,15.80
2017,05,24,16,04,15.70
2017,05,24,16,05,15.70
2017,05,24,16,06,15.60
2017,05,24,16,07,15.60
2017,05,24,16,08,15.70
2017,05,24,16,09,15.70
2017,05,24,16,10,15.60
2017,05,24,16,11,15.60
2017,05,24,16,12,15.60
2017,05,24,16,13,15.70
2017,05,24,16,14,15.80
2017,05,24,16,15,15.80
2017,05,24,16,16,15.90
2017,05,24,16,17,15.90
2017,05,24,16,18,15.90
2017,05,24,16,19,15.90
2017,05,24,16,20,16.00
2017,05,24,16,21,16.00
2017,05,24,16,22,16.00
2017,05,24,16,23,15.90
2017,05,24,16,24,15.90
2017,05,24,16,25,15.80
2017,05,24,16,26,15.80
2017,05,24,16,27,15.70
2017,05,24,16,28,15.70
2017,05,24,16,29,15.60
2017,05,24,16,30,15.60
2017,05,24,16,31,15.60
2017,05,24,16,32,15.60
2017,05,24,16,33,15.70
2017,05,24,16,34,15.80
2017,05,24,16,35,15.80
2017,05,24,16,36,15.80
2017,05,24,16,37,15.80
2017,05,24,16,38,15.80
2017,05,24,16,39,15.90
2017,05,24,16,40,15.90
2017,05,24,16,41,15.90
2017,05,24,16,42,15.90
2017,05,24,16,43,15.90
2017,05,24,16,44,15.90
2017,05,24,16,45,15.90
2017,05,24,16,46,15.80
2017,05,24,16,47,15.80
2017,05,24,16,48,15.70
2017,05,24,16,49,15.70
2017,05,24,16,50,15.70
2017,05,24,16,51,15.80
2017,05,24,16,52,15.80
2017,05,24,16,53,15.80
2017,05,24,16,54,15.80
2017,05,24,16,55,15.80
2017,05,24,16,56,15.80
2017,05,24,16,57,15.80
2017,05,24,16,58,15.90
2017,05,24,16,59,15.90
2017,05,24,17,00,15.90
2017,05,24,17,01,15.90
2017,05,24,17,02,15.90
2017,05,24,17,03,15.90
2017,05,24,17,04,15.90
2017,05,24,17,05,15.90
2017,05,24,17,06,15.90
2017,05,24,17,07,15.90
2017,05,24,17,08,15.90
2017,05,24,17,09,15.90
2017,05,24,17,10,15.90
2017,05,24,17,11,16.00
2017,05,24,17,12,16.00
2017,05,24,17,13,16.10
2017,05,24,17,14,16.10
2017,05,24,17,15,16.10
2017,05,24,17,16,16.00
2017,05,24,17,17,16.00
2017,05,24,17,18,15.90
2017,05,24,17,19,15.80
2017,05,24,17,20,15.80
2017,05,24,17,21,15.70
2017,05,24,17,22,15.70
2017,05,24,17,23,15.70
2017,05,24,17,24,15.70
2017,05,24,17,25,15.70
2017,05,24,17,26,15.70
2017,05,24,17,27,15.70
2017,05,24,17,28,15.60
2017,05,24,17,29,15.60
2017,05,24,17,30,15.60
2017,05,24,17,31,15.60
2017,05,24,17,32,15.70
2017,05,24,17,33,15.70
2017,05,24,17,34,15.80
2017,05,24,17,35,15.80
2017,05,24,17,36,15.80
2017,05,24,17,37,15.80
2017,05,24,17,38,15.80
2017,05,24,17,39,15.80
2017,05,24,17,40,15.70
2017,05,24,17,41,15.70